"Pseudo-MPEC" for P12owMV

Created 2026 Jul 22 6:35:10 UT using Find_Orb

Click here for an explanation of pseudo-MPECs

 
 Astrometry: 
     P12owMV*0C2026 07 20.45678421 17 17.392-15 32 14.09   ~7KDo 21.47wXNEOCPF51
     P12owMV 0C2026 07 20.46943721 17 19.525-15 32 07.59   ~7KDo 21.55wXNEOCPF51
     P12owMV 0C2026 07 20.48189621 17 21.626-15 32 01.28   ~7KDo 21.86wXNEOCPF51
     P12owMV 0C2026 07 20.57855621 17 37.934-15 31 09.76   ~7KHK 21.37GVNEOCPF51
     P12owMV 0C2026 07 20.57920121 17 38.042-15 31 09.42   ~7KHK 21.11GVNEOCPF51
     P12owMV 3C2026 07 21.55262021 20 41.964-15 22 52.91   ~7LE5 21.17GVNEOCPT14
     P12owMV 3C2026 07 21.55359821 20 42.125-15 22 52.42   ~7LE5 21.38GVNEOCPT14
     P12owMV 3C2026 07 21.55457021 20 42.284-15 22 51.87   ~7LE5 21.19GVNEOCPT14

Station data:
(F51) Pan-STARRS 1, Haleakala  (N20.707234 W156.255910)  US/Hawaii.
   Observers J. Herman, T. Lowe, P. Minguez, A. Schultz, I. Smith. Measurers
   K. Chambers, T. de Boer, J. Fairlamb, H. Gao, M. Huber, C.-C. Lin, E.
   Magnier, Y. Ramanjooloo, R. Wainscoat, R. Weryk. 1.8-m Ritchey-Chrétien +
   CCD.
(T14) Mauna Kea-UH/Tholen NEO Follow-Up (CFHT)  (N19.825252 W155.468876)
   US/Hawaii.  Observer R. Weryk. 3.6-m Canada-France-Hawaii Telescope.

Orbital elements:  P12owMV
   Perihelion 2026 Jul 14.353034 +/- 3.45 TT =  8:28:22.1 (JD 2461235.853034)
Epoch 2026 Jul 21.0 TT = JDT 2461242.5   Earth MOID: 0.1462   Ma: 0.0044
M   2.212179997 +/- 1.1             (J2000 ecliptic)             AutoNEOCP
n   0.332810465 +/- 0.00617         Peri.  171.668825 +/- 3.3
a   2.062234585 +/- 0.0255          Node   122.549163 +/- 0.024
e   0.43627597 +/- 0.00921          Incl.    0.774144 +/- 0.021
P   2.96147                H 24.32  G  0.15   U  9.3
q 1.162531187 +/- 0.00541    Q 2.961937983 +/- 0.0554
From 8 observations 2026 July 20-21 (26.3 hr); mean residual 0".05
Residuals in arcseconds: 
260720 F51  .03-  .13-    260720 F51  .01+  .01-    260721 T14  .01+  .02-    
260720 F51  .02-  .07+    260720 F51  .02-  .03-    260721 T14  .02-  .00     
260720 F51  .06+  .09+    260721 T14  .01+  .02+    

Ephemerides (geocentric):
Date (UTC) HH   RA             Dec           delta  r     elong  mag " sig PA
---- --------  ------------   ------------  ------ ------ -----  --- --------
2026 07 22 07  21 22 59.835   -15 16 09.14  .15715 1.1655 160.8 21.5 7.66  82
2026 07 22 08  21 23 07.457   -15 15 48.25  .15718 1.1656 160.8 21.5 8.32  82
2026 07 22 09  21 23 15.072   -15 15 27.37  .15721 1.1656 160.8 21.5 9.01  82
2026 07 22 10  21 23 22.678   -15 15 06.50  .15724 1.1656 160.8 21.5 9.71  81
2026 07 22 11  21 23 30.277   -15 14 45.64  .15727 1.1657 160.8 21.5 10.4  81
2026 07 22 12  21 23 37.868   -15 14 24.80  .15730 1.1657 160.9 21.5 11.2  81
2026 07 22 13  21 23 45.450   -15 14 03.97  .15733 1.1657 160.9 21.5 12.0  81
2026 07 22 14  21 23 53.026   -15 13 43.16  .15736 1.1658 160.9 21.5 12.7  81
2026 07 22 15  21 24 00.593   -15 13 22.36  .15739 1.1658 160.9 21.5 13.6  81
2026 07 22 16  21 24 08.152   -15 13 01.57  .15742 1.1658 160.9 21.5 14.4  80
2026 07 22 17  21 24 15.704   -15 12 40.80  .15745 1.1659 160.9 21.5 15.2  80
2026 07 22 18  21 24 23.247   -15 12 20.04  .15748 1.1659 160.9 21.5 16.1  80
2026 07 22 19  21 24 30.783   -15 11 59.29  .15751 1.1659 160.9 21.5 17.0  80
2026 07 22 20  21 24 38.310   -15 11 38.55  .15754 1.1660 160.9 21.5 17.9  80
2026 07 22 21  21 24 45.830   -15 11 17.83  .15757 1.1660 160.9 21.5 18.9  80
2026 07 22 22  21 24 53.342   -15 10 57.13  .15761 1.1660 160.9 21.5 19.8  80
2026 07 22 23  21 25 00.846   -15 10 36.43  .15764 1.1661 161.0 21.5 20.8  80
2026 07 23 00  21 25 08.342   -15 10 15.75  .15767 1.1661 161.0 21.5 21.8  80
2026 07 23 01  21 25 15.830   -15 09 55.09  .15770 1.1661 161.0 21.5 22.8  80
2026 07 23 02  21 25 23.310   -15 09 34.44  .15773 1.1662 161.0 21.5 23.9  80
2026 07 23 03  21 25 30.783   -15 09 13.80  .15777 1.1662 161.0 21.5 24.9  80
2026 07 23 04  21 25 38.247   -15 08 53.18  .15780 1.1662 161.0 21.5 26.0  80
2026 07 23 05  21 25 45.703   -15 08 32.57  .15783 1.1663 161.0 21.5 27.1  80
2026 07 23 06  21 25 53.151   -15 08 11.97  .15786 1.1663 161.0 21.5 28.2  80
2026 07 23 07  21 26 00.591   -15 07 51.39  .15790 1.1663 161.0 21.5 29.4  79
2026 07 23 08  21 26 08.024   -15 07 30.83  .15793 1.1664 161.0 21.5 30.5  79
2026 07 23 09  21 26 15.448   -15 07 10.27  .15796 1.1664 161.1 21.5 31.7  79
2026 07 23 10  21 26 22.864   -15 06 49.74  .15800 1.1664 161.1 21.5 32.9  79
2026 07 23 11  21 26 30.272   -15 06 29.21  .15803 1.1665 161.1 21.5 34.1  79
2026 07 23 12  21 26 37.672   -15 06 08.71  .15806 1.1665 161.1 21.5 35.4  79
2026 07 23 13  21 26 45.064   -15 05 48.21  .15810 1.1666 161.1 21.5 36.7  79
2026 07 23 14  21 26 52.448   -15 05 27.73  .15813 1.1666 161.1 21.5 37.9  79
2026 07 23 15  21 26 59.824   -15 05 07.27  .15817 1.1666 161.1 21.5 39.3  79
2026 07 23 16  21 27 07.192   -15 04 46.82  .15820 1.1667 161.1 21.5 40.6  79
2026 07 23 17  21 27 14.552   -15 04 26.38  .15823 1.1667 161.1 21.5 41.9  79
2026 07 23 18  21 27 21.904   -15 04 05.96  .15827 1.1667 161.1 21.5 43.3  79
2026 07 23 19  21 27 29.248   -15 03 45.55  .15830 1.1668 161.1 21.5 44.7  79
2026 07 23 20  21 27 36.583   -15 03 25.16  .15834 1.1668 161.2 21.5 46.1  79
2026 07 23 21  21 27 43.911   -15 03 04.79  .15837 1.1668 161.2 21.5 47.5  79
2026 07 23 22  21 27 51.230   -15 02 44.43  .15841 1.1669 161.2 21.5 49.0  79
2026 07 23 23  21 27 58.542   -15 02 24.08  .15844 1.1669 161.2 21.5 50.4  79
2026 07 24 00  21 28 05.845   -15 02 03.75  .15848 1.1670 161.2 21.5 51.9  79
2026 07 24 01  21 28 13.140   -15 01 43.44  .15852 1.1670 161.2 21.5 53.4  79
2026 07 24 02  21 28 20.427   -15 01 23.14  .15855 1.1670 161.2 21.5 54.9  79
2026 07 24 03  21 28 27.706   -15 01 02.85  .15859 1.1671 161.2 21.5 56.5  79
2026 07 24 04  21 28 34.977   -15 00 42.58  .15862 1.1671 161.2 21.5 58.1  79
2026 07 24 05  21 28 42.239   -15 00 22.33  .15866 1.1672 161.2 21.5 59.6  79
2026 07 24 06  21 28 49.493   -15 00 02.09  .15870 1.1672 161.3 21.5 61.3  79